FW1764 Weather Reports


time (UTC)temp
F
wind
direction
speed
knots
gust
knots
rain 1hr
in
rain 24hr
in
rain mn
in
humidity
%
barometer
mb
20260906040056 77 206 0.0 0.0 0.00 0.00 0.00 79 1013.5
20260906034530 78 206 0.0 0.0 0.00 0.00 0.00 79 1013.4
20260906033030 78 206 0.0 0.0 0.00 0.00 0.00 79 1013.4
20260906031558 78 206 0.0 0.0 0.00 0.00 0.00 78 1013.2
20260906030056 79 206 0.0 0.0 0.00 0.00 0.00 77 1013.1
20260906024552 79 206 0.0 0.0 0.00 0.00 0.00 77 1013.0
20260906023053 80 206 0.0 0.0 0.00 0.00 0.00 76 1013.0
20260906021557 80 206 0.0 0.0 0.00 0.00 0.00 76 1012.8
20260906020054 81 202 0.0 0.0 0.00 0.00 0.00 75 1012.6
20260906014550 81 203 0.0 0.0 0.00 0.00 0.00 74 1012.2
20260906013049 82 203 0.0 0.0 0.00 0.00 0.00 73 1012.0
20260906011602 83 202 0.0 0.0 0.00 0.00 0.00 72 1011.8
20260906010048 84 202 0.0 0.0 0.00 0.00 0.00 70 1011.6
20260906004546 85 202 0.0 0.0 0.00 0.00 0.00 68 1011.4
20260906003035 86 202 0.0 0.0 0.00 0.00 0.00 66 1011.4
20260906001517 87 202 0.0 0.0 0.00 0.00 0.00 64 1011.5
20260906000046 89 202 0.0 0.0 0.00 0.00 0.00 62 1011.5
20260905234546 90 202 0.0 0.9 0.00 0.00 0.00 59 1011.9
20260905233103 91 224 0.0 0.0 0.00 0.00 0.00 57 1011.8
20260905231552 92 211 0.0 0.9 0.00 0.00 0.00 55 1011.7
20260905230046 93 230 0.0 1.7 0.00 0.00 0.00 53 1011.4
20260905224604 97 192 0.0 5.2 0.00 0.00 0.00 48 1011.8
20260905223039 100 85 0.0 1.7 0.00 0.00 0.00 45 1011.4
20260905221541 100 236 0.0 2.6 0.00 0.00 0.00 44 1011.3
20260905220045 100 13 0.0 0.9 0.00 0.00 0.00 44 1011.2
20260905214540 100 205 0.0 0.9 0.00 0.00 0.00 44 1011.1
20260905213036 99 114 0.0 0.9 0.00 0.00 0.00 46 1011.1
20260905211534 99 230 0.0 0.9 0.00 0.00 0.00 44 1011.3
20260905210034 100 359 0.0 2.6 0.00 0.00 0.00 41 1011.2
20260905204532 100 149 0.0 0.0 0.00 0.00 0.00 41 1011.5
20260905203012 100 169 0.0 0.9 0.00 0.00 0.00 43 1011.5
20260905201519 101 39 0.0 4.3 0.00 0.00 0.00 40 1011.7
20260905200110 101 112 0.0 1.7 0.00 0.00 0.00 41 1011.8
20260905194520 101 23 0.0 1.7 0.00 0.00 0.00 41 1012.2
20260905193119 101 25 0.0 4.3 0.00 0.00 0.00 42 1012.3
20260905191550 100 58 0.0 0.9 0.00 0.00 0.00 43 1012.5
20260905190104 99 274 0.0 1.7 0.00 0.00 0.00 45 1012.7
20260905184605 101 304 0.0 3.5 0.00 0.00 0.00 43 1012.8
20260905183045 101 119 0.0 3.5 0.00 0.00 0.00 43 1012.9
20260905181545 100 354 0.9 3.5 0.00 0.00 0.00 44 1013.2
20260905180042 99 359 0.0 0.9 0.00 0.00 0.00 44 1013.3
20260905174550 101 155 0.0 1.7 0.00 0.00 0.00 43 1013.3
20260905173040 101 78 0.0 0.9 0.00 0.00 0.00 43 1013.5
20260905171537 103 258 0.0 1.7 0.00 0.00 0.00 42 1013.6
20260905170037 102 270 0.0 5.2 0.00 0.00 0.00 45 1013.8
20260905164535 104 62 0.0 1.7 0.00 0.00 0.00 43 1014.2
20260905163028 103 137 0.0 3.5 0.00 0.00 0.00 46 1014.3
20260905161524 101 179 0.0 4.3 0.00 0.00 0.00 46 1014.4
20260905160022 100 15 0.0 1.7 0.00 0.00 0.00 48 1014.6
20260905154515 99 193 0.9 4.3 0.00 0.00 0.00 50 1014.7
20260905153010 97 158 0.0 2.6 0.00 0.00 0.00 52 1014.6
20260905151509 97 134 0.0 3.5 0.00 0.00 0.00 53 1014.6
20260905150004 95 191 0.9 3.5 0.00 0.00 0.00 57 1014.6
20260905144601 92 174 0.0 1.7 0.00 0.00 0.00 64 1014.7
20260905143055 90 173 0.0 2.6 0.00 0.00 0.00 65 1014.6
20260905141558 86 183 0.0 5.2 0.00 0.00 0.00 71 1014.6
20260905140047 84 169 0.9 3.5 0.00 0.00 0.00 74 1014.6
20260905134542 81 184 0.9 5.2 0.00 0.00 0.00 77 1014.6
20260905133028 78 208 0.0 1.7 0.00 0.00 0.00 82 1014.5
20260905131543 76 188 0.0 0.9 0.00 0.00 0.00 88 1014.4
20260905130025 75 189 0.0 0.0 0.00 0.00 0.00 89 1014.6
20260905124537 74 189 0.0 0.0 0.00 0.00 0.00 88 1014.5
20260905123030 73 189 0.0 0.0 0.00 0.00 0.00 88 1014.4
20260905121532 73 189 0.0 0.0 0.00 0.00 0.00 88 1014.2
20260905120030 73 189 0.0 0.0 0.00 0.00 0.00 88 1014.1
20260905114538 73 189 0.0 0.0 0.00 0.00 0.00 88 1013.9
20260905113025 73 189 0.0 0.0 0.00 0.00 0.00 87 1013.8
20260905111601 73 189 0.0 0.0 0.00 0.00 0.00 87 1013.9
20260905110054 73 189 0.0 0.0 0.00 0.00 0.00 87 1013.7
20260905104549 73 189 0.0 0.0 0.00 0.00 0.00 87 1013.5
20260905103049 73 189 0.0 0.0 0.00 0.00 0.00 87 1013.5
20260905101559 73 189 0.0 0.0 0.00 0.00 0.00 87 1013.6
20260905100046 73 189 0.0 0.0 0.00 0.00 0.00 86 1013.5
20260905094544 74 189 0.0 0.0 0.00 0.00 0.00 86 1013.6
20260905093042 74 189 0.0 0.0 0.00 0.00 0.00 86 1013.7
20260905091540 74 189 0.0 0.0 0.00 0.00 0.00 86 1013.6
20260905090041 74 189 0.0 0.0 0.00 0.00 0.00 85 1013.7
20260905084522 75 189 0.0 0.0 0.00 0.00 0.00 85 1013.7
20260905083011 75 189 0.0 0.0 0.00 0.00 0.00 85 1013.8
20260905081503 75 189 0.0 0.0 0.00 0.00 0.00 84 1013.7
20260905080002 76 189 0.0 0.0 0.00 0.00 0.00 84 1013.7
20260905074600 76 189 0.0 0.0 0.00 0.00 0.00 84 1013.9
20260905073059 76 189 0.0 0.0 0.00 0.00 0.00 83 1013.7
20260905071529 76 189 0.0 0.0 0.00 0.00 0.00 83 1013.9
20260905070029 76 189 0.0 0.0 0.00 0.00 0.00 83 1014.0
20260905064529 77 189 0.0 0.0 0.00 0.00 0.00 83 1013.9
20260905063024 77 189 0.0 0.0 0.00 0.00 0.00 82 1014.0
20260905061522 77 189 0.0 0.0 0.00 0.00 0.00 82 1014.1
20260905060022 77 189 0.0 0.0 0.00 0.00 0.00 82 1014.2
20260905054604 77 189 0.0 0.0 0.00 0.00 0.00 82 1014.1
20260905053038 77 189 0.0 0.0 0.00 0.00 0.00 81 1014.0
20260905051516 78 189 0.0 0.0 0.00 0.00 0.00 81 1014.0
20260905050104 78 189 0.0 0.0 0.00 0.00 0.00 81 1014.0
20260905044543 78 189 0.0 0.0 0.00 0.00 0.00 80 1013.8
20260905043010 78 189 0.0 0.0 0.00 0.00 0.00 80 1013.7
20260905041536 78 189 0.0 0.0 0.00 0.00 0.00 80 1013.9